Location: Unspecified
(0.0000°N, 0.0000°E)
Time: 06:23:12
(UTC+02:00)

BREEZE-M DEB (TANK) - Visible Passes

Search period start: 20 October 2014 00:00
Search period end: 29 October 2014 23:00
Orbit: 323 x 16424 km, 49.4° (Epoch: 19 October)

Date Brightness Start Highest point End Pass type
(mag) Time Alt. Az. Time Alt. Az. Time Alt. Az.
20 Oct 8.1 02:03:54 10° NNW 02:11:08 15° NNW 02:11:08 15° NNW visible
20 Oct 8.3 18:12:47 10° WSW 19:11:16 43° WNW 21:48:02 10° NNE visible
21 Oct 8.2 19:09:10 10° WSW 20:13:02 29° WNW 22:42:12 10° NNE visible
22 Oct 8.1 20:19:07 10° W 23:08:18 18° N 23:31:04 14° NNE visible
23 Oct 8.0 23:22:58 10° NW 00:16:45 18° N 00:16:45 18° N visible
25 Oct 8.0 00:41:12 10° NNW 01:02:28 19° N 01:02:28 19° N visible
25 Oct 8.6 16:58:59 10° SW 17:49:31 55° WNW 20:32:29 10° NNE visible
26 Oct 8.1 01:39:42 10° NNW 01:48:10 16° NNW 01:48:10 16° NNW visible
26 Oct 8.3 16:51:26 10° WSW 17:49:09 40° WNW 20:27:03 10° NNE visible
27 Oct 8.1 17:49:14 10° W 18:53:28 26° WNW 21:22:08 10° NNE visible
28 Oct 8.0 19:05:51 10° WNW 21:54:05 19° N 22:08:11 17° NNE visible
29 Oct 7.9 22:02:28 10° NNW 22:53:54 21° N 22:53:54 21° N visible
